User: anonymous   Login
Location: Partizánske
(48.6285°N, 18.3769°E)
Time: 01:04:12
(UTC+02:00)
Language:

Vanguard 1 Rocket - Orbit

View from above orbital plane
View from above orbital plane
View from above satellite
View from above satellite

Ground track
Ground track

The orbit data is extracted from the following two-line orbital elements,

1 00016U 58002A   22175.44200187  .00000007  00000-0  31994-4 0  9992
2 00016  34.2582 186.5390 2026108 105.3604 277.8714 10.48823503536210
Epoch (UTC): 24 June 2022 10:36:28
Eccentricity: 0.2026108
inclination: 34.2582°
perigee height: 651 km
apogee height: 4224 km
right ascension of ascending node: 186.5390°
argument of perigee: 105.3604°
revolutions per day: 10.48823503
mean anomaly at epoch: 277.8714°
orbit number at epoch: 53621

The dashed part of the orbit path shows where the satellite is in the earth's shadow,  

DLR